TimeEDT,TemperatureF,Dew PointF,Humidity,Sea Level PressureIn,VisibilityMPH,Wind Direction,Wind SpeedMPH,Gust SpeedMPH,PrecipitationIn,Events,Conditions,WindDirDegrees,DateUTC
12:53 AM,50.0,46.0,86,29.92,10.0,Calm,Calm,-,N/A,,Clear,0,2012-09-21 04:53:00
1:53 AM,48.9,46.0,90,29.93,10.0,Calm,Calm,-,N/A,,Clear,0,2012-09-21 05:53:00
2:53 AM,46.0,44.1,93,29.94,10.0,Calm,Calm,-,N/A,,Clear,0,2012-09-21 06:53:00
3:53 AM,48.0,44.1,86,29.93,10.0,Calm,Calm,-,N/A,,Clear,0,2012-09-21 07:53:00
4:53 AM,46.9,42.1,83,29.94,10.0,Calm,Calm,-,N/A,,Clear,0,2012-09-21 08:53:00
5:53 AM,46.9,42.1,83,29.94,10.0,Calm,Calm,-,N/A,,Clear,0,2012-09-21 09:53:00
6:53 AM,46.0,42.1,86,29.95,10.0,Calm,Calm,-,N/A,,Clear,0,2012-09-21 10:53:00
7:53 AM,46.9,43.0,86,29.96,10.0,Calm,Calm,-,N/A,,Clear,0,2012-09-21 11:53:00
8:53 AM,50.0,44.1,80,29.97,10.0,SSW,3.5,-,N/A,,Clear,210,2012-09-21 12:53:00
9:53 AM,55.0,45.0,69,29.97,10.0,SSW,4.6,-,N/A,,Clear,210,2012-09-21 13:53:00
10:53 AM,60.1,44.1,55,29.97,10.0,SSW,5.8,-,N/A,,Clear,200,2012-09-21 14:53:00
11:53 AM,66.0,39.0,37,29.95,10.0,SW,10.4,-,N/A,,Clear,220,2012-09-21 15:53:00
12:53 PM,68.0,37.9,33,29.95,10.0,SW,10.4,-,N/A,,Clear,220,2012-09-21 16:53:00
1:53 PM,69.1,39.9,35,29.93,10.0,South,9.2,17.3,N/A,,Clear,190,2012-09-21 17:53:00
2:53 PM,69.1,37.9,32,29.89,10.0,SW,10.4,20.7,N/A,,Clear,220,2012-09-21 18:53:00
3:53 PM,72.0,37.9,29,29.87,10.0,Variable,5.8,20.7,N/A,,Clear,0,2012-09-21 19:53:00
4:53 PM,68.0,39.0,35,29.85,10.0,South,8.1,-,0.00,Rain,Light Rain,190,2012-09-21 20:53:00
5:53 PM,64.9,37.9,37,29.88,10.0,SSW,15.0,23.0,0.00,,Overcast,210,2012-09-21 21:53:00
6:53 PM,57.0,48.0,72,29.86,10.0,Calm,Calm,-,0.01,Rain,Light Rain,0,2012-09-21 22:53:00
7:53 PM,55.0,50.0,83,29.87,6.0,Calm,Calm,-,0.04,Rain,Light Rain,0,2012-09-21 23:53:00
8:53 PM,53.1,50.0,89,29.87,7.0,Calm,Calm,-,0.09,Rain,Rain,0,2012-09-22 00:53:00
9:53 PM,52.0,50.0,93,29.80,10.0,NNE,3.5,-,0.12,Rain,Light Rain,30,2012-09-22 01:53:00
10:53 PM,52.0,50.0,93,29.82,10.0,Calm,Calm,-,0.00,,Partly Cloudy,0,2012-09-22 02:53:00
11:53 PM,52.0,50.0,93,29.79,10.0,NNE,3.5,-,0.01,Rain,Light Rain,30,2012-09-22 03:53:00